VHAGEDORN Weather Reports


Display with metric or nautical units.
time (UTC)temp
F
wind
direction
speed
MPH
gust
MPH
rain 1hr
in
rain 24hr
in
rain mn
in
humidity
%
barometer
mb
20260504033037 50 165 0.0 2.0 0.00 0.00 0.00 71 1006.7
20260504031558 51 86 0.0 2.0 0.00 0.00 0.00 69 1006.8
20260504030013 53 355 0.0 1.0 0.00 0.00 0.00 66 1006.8
20260504024533 54 355 0.0 1.0 0.00 0.00 0.00 63 1006.7
20260504023015 56 355 0.0 0.0 0.00 0.00 0.00 60 1006.7
20260504021531 57 351 0.0 1.0 0.00 0.00 0.00 57 1006.6
20260504020051 58 351 0.0 0.0 0.00 0.00 0.00 54 1006.6
20260504014533 59 351 0.0 0.0 0.00 0.00 0.00 51 1006.7
20260504013103 60 351 0.0 2.0 0.00 0.00 0.00 50 1007.0
20260504011539 60 348 1.0 2.0 0.00 0.00 0.00 50 1007.1
20260504010033 60 350 1.0 5.0 0.00 0.00 0.00 49 1007.2
20260504004521 61 288 2.0 7.0 0.00 0.00 0.00 49 1007.4
20260504003056 61 351 1.0 4.0 0.00 0.00 0.00 49 1007.6
20260504001545 61 5 1.0 4.0 0.00 0.00 0.00 49 1007.7
20260504000032 62 15 3.0 8.0 0.00 0.00 0.00 47 1007.9
20260503234506 62 345 3.0 6.0 0.00 0.00 0.00 47 1007.9
20260503233004 63 38 1.0 8.0 0.00 0.00 0.00 49 1008.2
20260503231600 62 196 1.0 9.0 0.00 0.00 0.00 51 1007.9
20260503231509 62 196 1.0 9.0 0.00 0.00 0.00 51 1007.9
20260503230004 60 360 3.0 9.0 0.00 0.00 0.00 44 1007.6
20260503224552 59 50 6.0 19.0 0.00 0.00 0.00 51 1008.8